Meteo Giornale » Osservazioni meteo Germania » Gluecksburg-Meierwik
ore: 14:20 - Osservazioni Meteo Gluecksburg-Meierwik
Lat. 54° 50' N Lon. 9° 30' E Alt. 27 metri s.l.m.
19 °C
Sereno
Temp. 24 Ore
15 °C
21 °C
Ovest
31.5 Km/h
Dew point 16 °C
Umidità 82 %
Visibilità 10 Km
Il sole sorge alle ore 06:28
Il sole tramonta alle ore 20:15
| Data e Ora | Cielo e Fenomeni | T °C | DP °C | Um. % | Pres. hPa | Vis. km | Vento km/h | |
|---|---|---|---|---|---|---|---|---|
| Oggi h: 14:20 | Sereno | 19 | 16 | 82 | 1014 | 10 | O 31.5 | |
| Oggi h: 13:20 | Sereno | 18 | 15 | 82 | 1013 | 10 | O 42.6 | |
| Oggi h: 12:20 | Sereno | 20 | 15 | 72 | 1013 | 10 | O 38.8 | |
| Oggi h: 11:20 | Sereno | 19 | 16 | 82 | 1012 | 10 | O 38.8 | |
| Oggi h: 10:20 | Sereno | 18 | 17 | 93 | 1012 | 10 | O 31.5 | |
| Oggi h: 09:20 | Sereno | 16 | 15 | 93 | 1012 | 10 | O/SO 22.2 | |
| Oggi h: 08:20 | Sereno | 16 | 15 | 93 | 1012 | 3 | O/SO 16.7 | |
| Oggi h: 07:20 | Sereno | 15 | 14 | 93 | 1011 | 10 | O/SO 13 | |
| Oggi h: 06:20 | Sereno | 15 | 14 | 93 | 1011 | 10 | O/SO 16.7 | |
| Oggi h: 05:20 | Sereno | 16 | 14 | 87 | 1010 | 10 | O 18.5 | |
| Oggi h: 04:20 | Sereno | 16 | 15 | 93 | 1010 | 10 | O 25.9 | |
| Oggi h: 03:20 | Sereno | 16 | 15 | 93 | 1010 | 10 | O 25.9 | |
| Oggi h: 02:20 | Sereno | 16 | 15 | 93 | 1009 | 10 | O 22.2 | |
| Oggi h: 01:20 | Sereno | 15 | 14 | 93 | 1009 | 10 | O/SO 18.5 | |
| Oggi h: 00:20 | Sereno | 15 | 14 | 93 | 1009 | 10 | SO 13 | |
| Ieri h: 23:20 | Sereno | 15 | 14 | 93 | 1008 | 10 | SO 16.7 | |
| Ieri h: 22:20 | Sereno | 16 | 14 | 87 | 1008 | 10 | SO 18.5 | |
| Ieri h: 21:20 | Sereno | 16 | 14 | 87 | 1007 | 10 | S/SO 14.8 | |
| Ieri h: 20:20 | Sereno | 17 | 14 | 82 | 1007 | 10 | S/SO 13 | |
| Ieri h: 19:20 | Sereno | 18 | 14 | 77 | 1006 | 10 | O/SO 20.3 | |
| Ieri h: 18:20 | Sereno | 18 | 13 | 72 | 1006 | 10 | S/SO 13 | |
| Ieri h: 17:20 | Sereno | 19 | 13 | 68 | 1006 | 10 | SO 20.3 | |
| Ieri h: 16:20 | Sereno | 21 | 14 | 64 | 1006 | 10 | O/SO 24 | |
| Ieri h: 15:20 | Sereno | 20 | 15 | 72 | 1006 | 10 | SO 22.2 | |



